{"data":{"norad_id":40699,"intl_designator":"2015-029A","name":"COSMOS 2506","alt_names":[],"object_type":"PAYLOAD","status":"ACTIVE","operator":null,"country":"CIS","launch_date":"2015-06-23","launch_site_code":"PLMSC","launch_vehicle":null,"mission":null,"orbit_class":"UNKNOWN","rcs_meters":14.195,"size_class":null,"mass_kg":null,"dimensions":null,"purposes":[],"wikipedia_slug":null,"has_3d_model":false,"image_url":null,"decayed_at":null,"tle_current":{"epoch":"2026-05-25T04:35:28.663872Z","epoch_age_seconds":54723,"freshness":"FRESH","line1":"1 40699U 15029A   26145.19130398  .00000065  00000+0  25345-4 0  9990","line2":"2 40699  98.0480 186.8856 0006236 219.0444 141.0303 14.54376660579546","mean_motion":14.5437666,"eccentricity":0.0006236,"inclination_deg":98.048,"raan_deg":186.8856,"arg_perigee_deg":219.0444,"mean_anomaly_deg":141.0303,"bstar":2.5345e-5,"rev_number":57954,"period_min":99.011489912111,"perigee_km":706.96869262107,"apogee_km":715.8107503481,"semimajor_km":7089.5267214846,"source":"CELESTRAK","updated_at":"2026-05-25T13:37:55.544869Z"}}}